INTELSAT 22 (IS-22)

Last updated on Jan. 29, 2020, 4:37 a.m. UTC

1 38098U 12011A   20028.87270663 -.00000059  00000-0  00000-0 0  9999
2 38098   0.0043  24.0289 0002537 302.0634 187.7545  1.00270936 28451
UTC
Height (km)
Latitude
Longitude
Inclination
Orbital Period
UTC large
Height (km)
Speed (km/s)
/
Latitude / Longitude
Inclination (degrees)
Orbital Period (minutes)
Azimuth
Elevation
Range (km)
Doppler Factor
iOS Compass Heading
iOS Angle

Next 30 passes for location: Hong Kong

Rise time Rise Azimuth (degrees) Set time Set Azimuth (degrees) Duration Max altitude (degrees)

No matching passes for this satellites